Change the Weather History Date:

Sunday, October 9, 2011

  Actual Average Record
Temperature  
Mean Temperature 83 °F -  
Max Temperature 93 °F 86 °F 98 °F (2000)
Min Temperature 73 °F 64 °F 60 °F (2007)
Cooling Degree Days 18    
Growing Degree Days 33 (Base 50)    
Moisture  
Dew Point 67 °F    
Average Humidity 62    
Maximum Humidity 94    
Minimum Humidity 34    
Precipitation  
Precipitation 0.00 in - - ()
Sea Level Pressure  
Sea Level Pressure 29.90 in    
Wind  
Wind Speed 5 mph ()    
Max Wind Speed 14 mph    
Max Gust Speed -    
Visibility 1.5 miles    
Events      
Averages and records for this station are not official NWS values.
T = Trace of Precipitation, MM = Missing Value Source: Averaged Metar Reports

Daily Weather History Graph

Daily Weather History Graph

Search for Another Location

Airport or City:

Trip Planner

Search our weather history database for the weather conditions in past years. The results will help you decide how hot, cold, wet, or windy it might be!

Date:

Astronomy

Oct. 09, 2011 Rise Set
Actual Time 6:18 AM IST 5:59 PM IST
Civil Twilight 5:54 AM IST 6:22 PM IST
Nautical Twilight 5:27 AM IST 6:49 PM IST
Astronomical Twilight 5:00 AM IST 7:17 PM IST
Moon 4:16 PM IST (10/9) 3:46 AM IST (10/9)
Length of Visible Light 12h 27m
Length of Day
11h 40m
Waxing Gibbous, 93% of the Moon is Illuminated
Oct 9
Waxing Gibbous
Oct 12
Full
Oct 20
Last Quarter
Oct 27
New
Nov 2
First Quarter

Hourly Weather History & Observations

Time (IST) Temp. Heat Index Dew Point Humidity Pressure Visibility Wind Dir Wind Speed Gust Speed Precip Events Conditions
12:00 AM 82.4 °F 87.2 °F 71.6 °F 70% 29.89 in 1.6 mi NW 3.5 mph - N/A   Haze
12:30 AM 82.4 °F 87.2 °F 71.6 °F 70% 29.89 in 1.4 mi NNW 4.6 mph - N/A   Haze
1:00 AM 80.6 °F 84.6 °F 71.6 °F 74% 29.89 in 1.3 mi WNW 3.5 mph - N/A   Haze
1:30 AM 80.6 °F 84.6 °F 71.6 °F 74% 29.89 in 1.3 mi NNW 3.5 mph - N/A   Haze
2:00 AM 80.6 °F 84.6 °F 71.6 °F 74% 29.89 in 1.3 mi West 4.6 mph - N/A   Haze
2:30 AM 78.8 °F - 71.6 °F 78% 29.89 in 1.2 mi SW 3.5 mph - N/A   Mist
3:00 AM 77.0 °F - 71.6 °F 83% 29.89 in 1.0 mi WSW 3.5 mph - N/A   Mist
4:00 AM 75.2 °F - 71.6 °F 89% 29.89 in 0.9 mi West 3.5 mph - N/A   Mist
4:30 AM 73.4 °F - 71.6 °F 94% 29.89 in 0.9 mi West 3.5 mph - N/A   Mist
5:00 AM 73.4 °F - 71.6 °F 94% 29.89 in 0.7 mi West 3.5 mph - N/A   Mist
5:30 AM 75.2 °F - 71.6 °F 89% 29.89 in 0.9 mi SW 4.6 mph - N/A   Mist
6:00 AM 73.4 °F - 71.6 °F 94% 29.89 in 0.9 mi SW 4.6 mph - N/A   Mist
6:30 AM 73.4 °F - 71.6 °F 94% 29.92 in 0.9 mi SW 3.5 mph - N/A   Mist
7:00 AM 73.4 °F - 71.6 °F 94% 29.92 in 0.7 mi WSW 4.6 mph - N/A   Mist
7:30 AM 75.2 °F - 71.6 °F 89% 29.92 in 0.7 mi WSW 4.6 mph - N/A   Mist
8:00 AM 77.0 °F - 73.4 °F 89% 29.92 in 0.9 mi WSW 3.5 mph - N/A   Mist
9:00 AM 78.8 °F - 73.4 °F 83% 29.95 in 1.1 mi WSW 3.5 mph - N/A   Mist
9:30 AM 80.6 °F 85.4 °F 73.4 °F 79% 29.95 in 1.1 mi West 4.6 mph - N/A   Mist
10:00 AM 80.6 °F 84.6 °F 71.6 °F 74% 29.95 in 1.1 mi West 5.8 mph - N/A   Mist
10:30 AM 86.0 °F 90.4 °F 69.8 °F 58% 29.95 in 1.1 mi West 6.9 mph - N/A   Haze
11:00 AM 86.0 °F 90.4 °F 69.8 °F 58% 29.95 in 1.4 mi WNW 10.4 mph - N/A   Haze
11:30 AM 87.8 °F 90.4 °F 66.2 °F 49% 29.95 in 1.6 mi West 8.1 mph - N/A   Haze
12:00 PM 89.6 °F 92.2 °F 66.2 °F 46% 29.92 in 1.7 mi WNW 8.1 mph - N/A   Haze
12:30 PM 89.6 °F 92.2 °F 66.2 °F 46% 29.92 in 1.7 mi West 10.4 mph - N/A   Haze
1:00 PM 91.4 °F 92.1 °F 62.6 °F 38% 29.92 in 1.6 mi WNW 8.1 mph - N/A   Haze
1:30 PM 91.4 °F 90.7 °F 59.0 °F 34% 29.89 in 1.7 mi West 9.2 mph - N/A   Haze
2:30 PM 93.2 °F 93.3 °F 60.8 °F 34% 29.86 in 1.9 mi NW 11.5 mph - N/A   Haze
3:00 PM 93.2 °F 93.3 °F 60.8 °F 34% 29.86 in 2.2 mi NW 10.4 mph - N/A   Haze
3:30 PM 93.2 °F 93.3 °F 60.8 °F 34% 29.86 in 2.2 mi NW 13.8 mph - N/A   Haze
4:00 PM 91.4 °F 91.4 °F 60.8 °F 36% 29.86 in 2.2 mi NW 11.5 mph - N/A   Haze
4:30 PM 91.4 °F 91.4 °F 60.8 °F 36% 29.86 in 2.2 mi NW 12.7 mph - N/A   Haze
5:00 PM 91.4 °F 90.7 °F 59.0 °F 34% 29.86 in 2.5 mi NW 11.5 mph - N/A   Haze
5:30 PM 89.6 °F 88.9 °F 59.0 °F 36% 29.86 in 2.5 mi NNW 9.2 mph - N/A   Haze
6:00 PM 87.8 °F 87.6 °F 60.8 °F 40% 29.86 in 2.2 mi NW 8.1 mph - N/A   Haze
6:30 PM 87.8 °F 87.6 °F 60.8 °F 40% 29.86 in 2.2 mi NW 6.9 mph - N/A   Haze
7:00 PM 86.0 °F 86.1 °F 60.8 °F 43% 29.86 in 2.2 mi NW 5.8 mph - N/A   Haze
7:30 PM 86.0 °F 86.1 °F 60.8 °F 43% 29.89 in - NW 6.9 mph - N/A   Haze
8:00 PM 84.2 °F 85.0 °F 62.6 °F 48% 29.89 in - West 4.6 mph - N/A   Haze
8:30 PM 84.2 °F 85.6 °F 64.4 °F 51% 29.89 in - West 3.5 mph - N/A   Haze
9:30 PM 80.6 °F 82.3 °F 64.4 °F 58% 29.89 in 1.6 mi Variable 2.3 mph - N/A   Haze
10:00 PM 78.8 °F - 66.2 °F 65% 29.89 in 1.4 mi Variable 2.3 mph - N/A   Haze
10:30 PM 78.8 °F - 66.2 °F 65% 29.89 in 1.4 mi Calm Calm - N/A   Haze
11:00 PM 78.8 °F - 66.2 °F 65% 29.89 in 1.4 mi Calm Calm - N/A   Haze
11:30 PM 78.8 °F - 66.2 °F 65% 29.89 in 1.4 mi Calm Calm - N/A   Haze